IDEFIX & ARIANE 42P R/B (27422 NORAD) Tracking and Keplerian Element Data

This shows tracking and keplerian element data for the satellite.

Feedback or suggestion? Click here.




ElementValue
Catalog27422
NameIDEFIX & ARIANE 42P R/B
Epoch Orbit17068
Epoch Day286.82106843
Epoch Year2024
RAAN222.1991
Inclination98.5349
Eccentricity0.0010589
Argument of Perigee257.5461
Mean Anonmoly102.4537
Mean Motion14.30383538
Decay Rate1.752E-05
L11 27422U 02021B 24286.82106843 .00001752 00000+0 69007-3 0 9995
L22 27422 98.5349 222.1991 0010589 257.5461 102.4537 14.30383538170688



Live tracking and technical data element details for IDEFIX & ARIANE 42P R/B (NORAD 27422). IDEFIX & ARIANE 42P R/B can be tracked NOW for your location showing map with azimuth and elevation plus other details from your city location.







IsCatalogInMostPopularTable: catalog: 27422, numindb: 622
Update: records affected: 1



GetName: 27422 IDEFIX & ARIANE 42P R/B

Hit Count: updated at: Wed, 04 Dec 2024 13:42:01 GMT